Estación de Colegual INIA

Ultimos registro cada 15 minutos 27
Estación Fecha / Hora Temperatura Humedad Lluvia Velocidad Dirección Radiación Presion
27 Colegual INIA 04-05-2026 06:30 9,1 98,7 0 3,1 234 0 991
26 Colegual INIA 04-05-2026 06:15 9 99 0,1 2,7 232 0 991
25 Colegual INIA 04-05-2026 06:00 8,9 98,5 0,1 2,2 227 0 991
24 Colegual INIA 04-05-2026 05:45 8,9 98 0,1 2 225 0 991
23 Colegual INIA 04-05-2026 05:30 9 98,3 0 2,2 232 0 991
22 Colegual INIA 04-05-2026 05:15 9 98,5 0 2,1 248 0 991
21 Colegual INIA 04-05-2026 05:00 9 98,4 0 2 252 0 991
20 Colegual INIA 04-05-2026 04:45 9 98,7 0 1,7 263 0 992
19 Colegual INIA 04-05-2026 04:30 9,1 98,3 0,1 1,2 224 0 992
18 Colegual INIA 04-05-2026 04:15 9 98,7 0,2 2,2 208 0 992
17 Colegual INIA 04-05-2026 04:00 9 98,5 0 2,8 227 0 992
16 Colegual INIA 04-05-2026 03:45 9 98,4 0 3,4 229 0 992
15 Colegual INIA 04-05-2026 03:30 9 98 0 2,7 231 0 992
14 Colegual INIA 04-05-2026 03:15 9 98,2 0 2,3 232 0 992
13 Colegual INIA 04-05-2026 03:00 9 98,1 0 2,5 236 0 992
12 Colegual INIA 04-05-2026 02:45 9,1 97,6 0 2,3 225 0 993
11 Colegual INIA 04-05-2026 02:30 9,1 97,8 0 1,7 195 0 992
10 Colegual INIA 04-05-2026 02:15 9 97,4 0 2,1 211 0 992
9 Colegual INIA 04-05-2026 02:00 9 97,6 0 2,2 216 0 993
8 Colegual INIA 04-05-2026 01:45 9 97,3 0 2,8 220 0 993
7 Colegual INIA 04-05-2026 01:30 8,9 97,4 0 3,1 226 0 993
6 Colegual INIA 04-05-2026 01:15 8,9 97,4 0 2,9 228 0 993
5 Colegual INIA 04-05-2026 01:00 9 96,8 0 2,6 231 0 993
4 Colegual INIA 04-05-2026 00:45 9 96 0 2,7 233 0 993
3 Colegual INIA 04-05-2026 00:30 9 96,1 0 2,5 233 0 993
2 Colegual INIA 04-05-2026 00:15 9,1 96,4 0 3,2 225 0 993
1 Colegual INIA 04-05-2026 00:00 9 97,7 0 2,9 228 0 993